[[{"header":{"parameterUnit":"m.s-1","parameterCategory":1,"la1":30.2991,"la2":30.254,"lo1":-89.0895,"lo2":-89.0444,"dy":0.0017,"dx":0.0017,"nx":28,"ny":28,"refTime":"2025-03-30T09:00:00:Z","depth":0,"parameterNumber":2,"parameterNumberName":"U-component_of_WINDS"},"data":[0,0,0,0,0,0,0,0,0,0,0,0,0,0,0,0,0,0,0,0,0,0,0,0,0,0,0,0,0,0,0,0,0,0,0,0,0,0,0,0,0,0,0,0,0,0,0,0,0,0,0,0,0,0,0,0,0,0,-2.4428,-2.4429,0,-2.454,-2.4542,-2.4543,-2.4597,-2.4597,-2.4597,-2.4597,-2.4714,-2.4717,-2.472,0,0,0,0,0,0,0,0,0,0,0,0,0,-2.4261,-2.4264,-2.4428,-2.4429,-2.4431,-2.454,-2.4542,-2.4543,-2.4597,-2.4597,-2.4597,-2.4597,-2.4713,-2.4716,-2.472,0,0,0,0,0,0,0,0,0,0,0,0,0,-2.4349,-2.4265,-2.4428,-2.4471,-2.4476,-2.454,-2.4542,-2.4544,-2.4597,-2.4597,-2.4597,-2.4597,-2.4711,-2.4716,-2.4721,-2.4751,0,0,-2.4735,-2.4737,0,0,0,0,0,0,0,0,-2.4344,-2.4356,-2.4463,-2.4468,-2.4474,-2.4555,-2.4526,-2.4613,-2.4597,-2.4551,-2.4597,-2.4597,-2.4661,-2.467,-2.4691,-2.4757,-2.4762,-2.4735,-2.4738,-2.474,-2.4742,0,0,0,0,0,0,0,-2.4338,-2.4351,-2.4473,-2.4464,-2.4471,-2.4485,-2.4497,-2.4543,-2.4605,-2.4555,-2.4559,-2.4572,-2.4664,-2.4686,-2.4694,-2.4763,-2.4735,-2.4739,-2.4742,-2.4744,-2.486,-2.486,0,0,0,0,0,0,-2.4325,-2.4346,-2.4469,-2.4476,-2.4407,-2.4488,-2.4502,-2.4529,-2.4605,-2.4616,-2.4572,-2.4574,-2.4678,-2.4689,-2.4698,-2.474,-2.474,-2.4745,-2.4747,-2.486,-2.486,-2.486,0,0,0,0,0,0,-2.4321,-2.4335,-2.4464,-2.4412,-2.4429,-2.4491,-2.452,-2.4531,-2.4554,-2.4617,-2.4629,-2.4583,-2.4679,-2.4692,-2.4738,-2.4744,-2.4747,-2.4751,-2.4859,-2.486,-2.486,-2.4821,0,0,0,0,0,0,-2.4316,-2.4334,-2.4346,-2.4412,-2.4432,-2.4501,-2.4521,-2.4533,-2.4561,-2.4565,-2.4631,-2.4642,-2.468,-2.473,-2.4742,-2.4751,-2.4755,-2.4859,-2.486,-2.486,-2.4822,-2.482,-2.4819,0,0,0,0,0,-2.431,-2.4331,-2.4346,-2.4361,-2.4448,-2.4501,-2.4513,-2.4556,-2.4562,-2.4574,-2.4615,-2.464,-2.4741,-2.4734,-2.4748,-2.4759,-2.4859,-2.4859,-2.486,-2.4823,-2.4821,-2.4819,0,0,0,0,0,0,-2.4265,-2.434,-2.4358,-2.4401,-2.4444,-2.451,-2.4528,-2.4552,-2.4595,-2.4597,-2.4648,-2.4662,-2.4704,-2.4736,-2.4727,-2.4792,-2.4802,-2.4806,-2.477,-2.4768,-2.4766,-2.4758,-2.4759,0,0,0,0,0,-2.4259,-2.4296,-2.436,-2.4392,-2.4412,-2.4466,-2.4491,-2.452,-2.4567,-2.4586,-2.463,-2.4676,-2.4718,-2.4745,-2.4787,-2.4827,-2.4842,-2.4841,-2.4839,-2.4837,-2.484,-2.4864,-2.4864,-2.4862,-2.4862,-2.4862,0,0,-2.4249,-2.4295,-2.4315,-2.4384,-2.4421,-2.4458,-2.4481,-2.452,-2.4548,-2.4592,-2.4638,-2.4672,-2.4726,-2.4769,-2.479,-2.4797,-2.4843,-2.4838,-2.4836,-2.484,-2.4864,-2.4864,-2.4864,-2.4862,-2.4862,-2.4862,0,0,-2.425,-2.4288,-2.4319,-2.4355,-2.4411,-2.4446,-2.4453,-2.4516,-2.454,-2.4586,-2.462,-2.4655,-2.4726,-2.4764,-2.4792,-2.4806,-2.483,-2.4818,-2.4809,-2.4831,-2.4831,-2.4832,-2.4837,-2.4838,-2.482,-2.482,-2.482,0,-2.4231,-2.4288,-2.4331,-2.4368,-2.4397,-2.4438,-2.4469,-2.4502,-2.4569,-2.4588,-2.4595,-2.4686,-2.4725,-2.4777,-2.478,-2.4802,-2.4812,-2.4811,-2.4828,-2.4829,-2.483,-2.4835,-2.4837,-2.4818,-2.4818,-2.4819,-2.4819,0,-2.4261,-2.43,-2.4318,-2.438,-2.4412,-2.4445,-2.4494,-2.4521,-2.4547,-2.4581,-2.4628,-2.4677,-2.473,-2.4744,-2.477,-2.48,-2.4803,-2.4818,-2.4829,-2.4827,-2.4834,-2.4836,-2.4816,-2.4816,-2.4817,-2.4817,0,0,-2.4238,-2.4323,-2.4329,-2.4358,-2.4422,-2.4453,-2.4488,-2.4539,-2.4561,-2.4605,-2.4637,-2.4696,-2.471,-2.4742,-2.4772,-2.4792,-2.48,-2.4805,-2.4807,-2.4803,-2.4837,-2.4825,-2.4827,-2.4816,-2.4817,-2.4818,-2.4833,0,-2.4248,-2.4312,-2.4352,-2.4401,-2.4438,-2.4477,-2.4507,-2.455,-2.4583,-2.462,-2.4657,-2.4698,-2.4713,-2.4733,-2.4754,-2.4795,-2.4808,-2.4794,-2.4847,-2.4848,-2.4832,-2.4831,-2.4819,-2.483,-2.4835,-2.4836,-2.4836,0,-2.4268,-2.4311,-2.4363,-2.4422,-2.4439,-2.4466,-2.4516,-2.4549,-2.4599,-2.4622,-2.4657,-2.4687,-2.4727,-2.4734,-2.479,-2.4779,-2.4803,-2.4826,-2.4828,-2.4835,-2.4842,-2.4838,-2.4835,-2.4837,-2.484,-2.484,-2.484,0,-2.4246,-2.4316,-2.4356,-2.438,-2.445,-2.4468,-2.4498,-2.4547,-2.4575,-2.4619,-2.4638,-2.4686,-2.4712,-2.4749,-2.4792,-2.4793,-2.4843,-2.4854,-2.4864,-2.4862,-2.4873,-2.4872,-2.4874,-2.4887,-2.4887,-2.4887,-2.4887,0,-2.4253,-2.4284,-2.4347,-2.4372,-2.4407,-2.4453,-2.4487,-2.4521,-2.4564,-2.4596,-2.4633,-2.4663,-2.4717,-2.4754,-2.4788,-2.4829,-2.484,-2.486,-2.4869,-2.4857,-2.4855,-2.4874,-2.4875,-2.4887,-2.4887,-2.4887,-2.4887,0,-2.4235,-2.4279,-2.4325,-2.4387,-2.4403,-2.4427,-2.448,-2.4506,-2.4541,-2.4582,-2.4594,-2.4649,-2.4694,-2.474,-2.4801,-2.4824,-2.4864,-2.4876,-2.4847,-2.4852,-2.4859,-2.4858,-2.4875,-2.488,-2.4888,-2.4888,-2.4888,0,-2.4237,-2.4261,-2.4325,-2.4349,-2.4378,-2.4416,-2.4445,-2.4491,-2.4519,-2.4576,-2.4595,-2.4643,-2.4683,-2.4753,-2.48,-2.4846,-2.486,-2.4863,-2.4867,-2.4855,-2.4861,-2.4859,-2.4862,-2.4861,-2.4861,-2.486,-2.486,0,-2.4236,-2.4256,-2.4295,-2.4342,-2.4374,-2.4413,-2.4454,-2.4472,-2.4526,-2.4556,-2.4602,-2.4633,-2.4695,-2.4742,-2.4794,-2.4826,-2.4852,-2.4858,-2.4863,-2.4852,-2.4834,-2.4844,-2.4843,-2.4858,-2.4858,-2.4858,-2.4858,-2.4858,-2.4228,-2.4251,-2.43,-2.4342,-2.4377,-2.4414,-2.4441,-2.4479,-2.4518,-2.4571,-2.4596,-2.4642,-2.4691,-2.4764,-2.4795,-2.4833,-2.484,-2.4847,-2.4849,-2.485,-2.4847,-2.4827,-2.4842,-2.4842,-2.4843,-2.4843,-2.4843,0,-2.4229,-2.4262,-2.43,-2.4356,-2.4389,-2.4409,-2.4455,-2.4482,-2.4522,-2.4565,-2.4604,-2.4656,-2.4702,-2.4751,-2.48,-2.482,-2.4834,-2.4831,-2.4831,-2.4838,-2.4838,-2.4829,-2.482,-2.482,-2.482,-2.482,-2.482,-2.482,-2.4234,-2.4274,-2.43,-2.4358,-2.4391,-2.4436,-2.446,-2.4495,-2.4529,-2.4586,-2.4624,-2.4655,-2.4701,-2.4753,-2.4796,-2.4809,-2.4826,-2.482,-2.4837,-2.4836,-2.4838,-2.4839,-2.4831,-2.4823,-2.4823,-2.4834,-2.4834,-2.4835]},{"header":{"parameterUnit":"m.s-1","parameterCategory":1,"la1":30.2991,"la2":30.254,"lo1":-89.0895,"lo2":-89.0444,"dy":0.0017,"dx":0.0017,"nx":28,"ny":28,"refTime":"2025-03-30T09:00:00:Z","depth":0,"parameterNumber":3,"parameterNumberName":"V-component_of_WINDS"},"data":[0,0,0,0,0,0,0,0,0,0,0,0,0,0,0,0,0,0,0,0,0,0,0,0,0,0,0,0,0,0,0,0,0,0,0,0,0,0,0,0,0,0,0,0,0,0,0,0,0,0,0,0,0,0,0,0,0,0,2.6992,2.6994,0,2.7187,2.7189,2.7191,2.7283,2.7283,2.7283,2.7283,2.7486,2.7491,2.7496,0,0,0,0,0,0,0,0,0,0,0,0,0,2.6706,2.671,2.6992,2.6994,2.6997,2.7186,2.7189,2.7192,2.7283,2.7283,2.7283,2.7283,2.7484,2.749,2.7497,0,0,0,0,0,0,0,0,0,0,0,0,0,2.6858,2.6712,2.6992,2.7065,2.7074,2.7186,2.7189,2.7192,2.7283,2.7283,2.7283,2.7283,2.7482,2.749,2.7498,2.7552,0,0,2.7523,2.7527,0,0,0,0,0,0,0,0,2.6849,2.6869,2.7052,2.7061,2.707,2.7211,2.7162,2.7313,2.7283,2.7204,2.7283,2.7283,2.7394,2.741,2.7447,2.7561,2.757,2.7524,2.7529,2.7532,2.7535,0,0,0,0,0,0,0,2.6839,2.6861,2.7069,2.7055,2.7066,2.7091,2.7112,2.7191,2.7298,2.7211,2.7218,2.724,2.7399,2.7439,2.7452,2.7573,2.7524,2.7531,2.7536,2.7539,2.7746,2.7746,0,0,0,0,0,0,2.6815,2.6851,2.7063,2.7075,2.6957,2.7096,2.712,2.7166,2.7297,2.7317,2.724,2.7243,2.7425,2.7443,2.746,2.7534,2.7532,2.754,2.7545,2.7745,2.7746,2.7746,0,0,0,0,0,0,2.6809,2.6833,2.7055,2.6965,2.6995,2.7101,2.7152,2.717,2.7209,2.7319,2.7339,2.726,2.7425,2.7448,2.7529,2.7542,2.7544,2.7551,2.7744,2.7745,2.7746,2.7681,0,0,0,0,0,0,2.68,2.683,2.6851,2.6965,2.7,2.7119,2.7152,2.7174,2.7222,2.7229,2.7343,2.7362,2.7427,2.7516,2.7537,2.7554,2.7558,2.7744,2.7745,2.7746,2.7683,2.768,2.7677,0,0,0,0,0,2.679,2.6825,2.6851,2.6876,2.7027,2.7119,2.714,2.7213,2.7223,2.7245,2.7317,2.7358,2.7537,2.7523,2.7548,2.7567,2.7743,2.7744,2.7746,2.7684,2.768,2.7677,0,0,0,0,0,0,2.671,2.6841,2.6872,2.6944,2.702,2.7135,2.7165,2.7206,2.7281,2.7285,2.7374,2.7399,2.7472,2.7528,2.751,2.7628,2.7644,2.765,2.7589,2.7587,2.7584,2.757,2.7564,0,0,0,0,0,2.67,2.6763,2.6875,2.6928,2.6965,2.7058,2.7101,2.7151,2.7234,2.7267,2.7344,2.7423,2.7498,2.7545,2.762,2.7691,2.7719,2.7717,2.7714,2.7711,2.7716,2.7761,2.7762,2.775,2.775,2.775,0,0,2.6682,2.6761,2.6796,2.6914,2.6979,2.7044,2.7084,2.7151,2.7201,2.7277,2.7358,2.7418,2.7513,2.759,2.7628,2.7639,2.7726,2.7713,2.771,2.7716,2.7763,2.7764,2.7764,2.7751,2.7751,2.7751,0,0,2.6682,2.6747,2.68,2.6864,2.6962,2.7024,2.7036,2.7146,2.7188,2.7271,2.733,2.7392,2.7518,2.7584,2.7634,2.7662,2.7705,2.7684,2.767,2.7713,2.7714,2.7716,2.7728,2.7731,2.7688,2.7688,2.7688,0,2.6647,2.6746,2.6822,2.6887,2.6938,2.701,2.7066,2.7125,2.7241,2.7277,2.7287,2.7449,2.7517,2.7612,2.7619,2.7657,2.7676,2.7672,2.7708,2.771,2.7712,2.7725,2.7729,2.7685,2.7685,2.7686,2.7686,0,2.67,2.6768,2.6799,2.691,2.6966,2.7025,2.7112,2.716,2.7205,2.7267,2.7352,2.7438,2.7532,2.7558,2.7603,2.7661,2.7665,2.769,2.7708,2.7709,2.7723,2.7728,2.7681,2.7682,2.7683,2.7683,0,0,2.6654,2.6808,2.6818,2.6871,2.6984,2.7039,2.7103,2.7195,2.7235,2.7314,2.7372,2.7478,2.7503,2.756,2.7613,2.7651,2.7671,2.7672,2.7676,2.7671,2.7743,2.7724,2.7728,2.7699,2.77,2.7701,2.7736,0,2.6671,2.6788,2.686,2.6948,2.7014,2.7084,2.714,2.7217,2.7278,2.7344,2.7411,2.7485,2.7511,2.7547,2.7587,2.766,2.7687,2.7658,2.7756,2.7759,2.7732,2.7735,2.7715,2.7743,2.7741,2.7742,2.7743,0,2.6707,2.6784,2.6878,2.6988,2.7018,2.7067,2.7159,2.722,2.731,2.7352,2.7416,2.747,2.7544,2.7555,2.7659,2.7638,2.7683,2.7725,2.7728,2.7741,2.7751,2.775,2.7754,2.7758,2.7752,2.7751,2.775,0,2.6666,2.6794,2.6868,2.6911,2.7039,2.7072,2.7128,2.7218,2.7269,2.735,2.7385,2.7473,2.7521,2.7589,2.7667,2.7668,2.7764,2.7782,2.7803,2.7801,2.7821,2.7819,2.7833,2.7846,2.7846,2.7846,2.7846,0,2.6679,2.6735,2.6852,2.6897,2.6963,2.7047,2.711,2.7171,2.7251,2.7312,2.7378,2.7434,2.7533,2.7602,2.7663,2.7742,2.7762,2.78,2.7816,2.7795,2.779,2.7826,2.7827,2.7848,2.7847,2.7847,2.7847,0,2.6645,2.6725,2.6811,2.6926,2.6957,2.7,2.71,2.7148,2.7212,2.7289,2.7311,2.7413,2.7498,2.7582,2.7696,2.7738,2.7816,2.7836,2.7785,2.7794,2.7812,2.7809,2.7851,2.7862,2.7865,2.7865,2.7865,0,2.6648,2.6693,2.6813,2.6858,2.6912,2.6983,2.7036,2.7121,2.7174,2.7282,2.7318,2.7407,2.7484,2.7616,2.7702,2.779,2.7815,2.7823,2.7828,2.7807,2.7818,2.7815,2.7821,2.7821,2.782,2.782,2.7819,0,2.6646,2.6684,2.6758,2.6846,2.6908,2.6981,2.7058,2.7091,2.7191,2.7248,2.7335,2.7394,2.7512,2.7601,2.77,2.7759,2.7807,2.7817,2.7827,2.7807,2.7776,2.7796,2.778,2.7816,2.7816,2.7816,2.7817,2.7817,2.6633,2.6677,2.6769,2.685,2.6916,2.6986,2.7038,2.7109,2.7183,2.7284,2.733,2.7419,2.7512,2.7649,2.7708,2.7781,2.7793,2.7807,2.7811,2.7813,2.781,2.7763,2.7799,2.7799,2.7799,2.7799,2.7799,0,2.6636,2.6699,2.6772,2.6877,2.6941,2.698,2.7067,2.7119,2.7195,2.7277,2.7351,2.7453,2.7541,2.7633,2.7727,2.7767,2.7792,2.7789,2.7788,2.7801,2.7792,2.7775,2.7768,2.7768,2.7768,2.7768,2.7768,2.7768,2.6645,2.6723,2.6773,2.6885,2.6949,2.7035,2.7082,2.7149,2.7214,2.7325,2.7398,2.7457,2.7545,2.7646,2.7729,2.7754,2.7786,2.7778,2.781,2.7799,2.7802,2.7804,2.7788,2.7784,2.7784,2.7813,2.7814,2.7814]}]]